Time,TemperatureF,DewpointF,PressureIn,WindDirection,WindDirectionDegrees,WindSpeedMPH,WindSpeedGustMPH,Humidity,HourlyPrecipIn,Conditions,Clouds,dailyrainin,SoftwareType,DateUTC
2013-05-13 00:00:00,53.4,42.8,29.92,WNW,303,9.0,9.0,67,0.00,,,0.00,meteohub,2013-05-13 04:00:00,
2013-05-13 00:01:00,53.4,42.3,29.92,WNW,288,6.0,8.0,66,0.00,,,0.00,meteohub,2013-05-13 04:01:00,
2013-05-13 00:06:00,53.4,41.5,29.92,WNW,295,4.0,11.0,64,0.00,,,0.00,meteohub,2013-05-13 04:06:00,
2013-05-13 00:11:00,53.4,40.3,29.92,WNW,289,6.0,14.0,61,0.00,,,0.00,meteohub,2013-05-13 04:11:00,
2013-05-13 00:16:00,53.4,42.3,29.92,NW,311,6.0,14.0,66,0.00,,,0.00,meteohub,2013-05-13 04:16:00,
2013-05-13 00:21:00,53.2,42.3,29.93,NW,309,7.0,14.0,66,0.00,,,0.00,meteohub,2013-05-13 04:21:00,
2013-05-13 00:26:00,53.2,41.0,29.93,WNW,288,4.0,10.0,63,0.00,,,0.00,meteohub,2013-05-13 04:26:00,
2013-05-13 00:31:00,53.1,40.8,29.93,WNW,292,6.0,10.0,63,0.00,,,0.00,meteohub,2013-05-13 04:31:00,
2013-05-13 00:36:00,53.1,41.2,29.94,NNW,335,5.0,10.0,64,0.00,,,0.00,meteohub,2013-05-13 04:36:00,
2013-05-13 00:41:00,52.9,42.3,29.93,WNW,291,6.0,10.0,67,0.00,,,0.00,meteohub,2013-05-13 04:41:00,
2013-05-13 00:46:00,52.9,41.4,29.94,WNW,293,5.0,10.0,65,0.00,,,0.00,meteohub,2013-05-13 04:46:00,
2013-05-13 00:51:00,52.9,41.9,29.94,WNW,302,5.0,11.0,66,0.00,,,0.00,meteohub,2013-05-13 04:51:00,
2013-05-13 00:56:00,52.9,41.9,29.94,West,281,5.0,11.0,66,0.00,,,0.00,meteohub,2013-05-13 04:56:00,
2013-05-13 01:01:00,52.7,40.8,29.94,WNW,294,5.0,9.0,64,0.00,,,0.00,meteohub,2013-05-13 05:01:00,
2013-05-13 01:06:00,52.7,41.7,29.94,West,280,6.0,10.0,66,0.00,,,0.00,meteohub,2013-05-13 05:06:00,
2013-05-13 01:11:00,52.5,41.9,29.94,WNW,285,6.0,10.0,67,0.00,,,0.00,meteohub,2013-05-13 05:11:00,
2013-05-13 01:16:00,52.5,41.9,29.94,West,267,5.0,10.0,67,0.00,,,0.00,meteohub,2013-05-13 05:16:00,
2013-05-13 01:21:00,52.5,41.2,29.94,NW,307,5.0,10.0,65,0.00,,,0.00,meteohub,2013-05-13 05:21:00,
2013-05-13 01:26:00,52.5,41.5,29.94,WNW,288,7.0,10.0,66,0.00,,,0.00,meteohub,2013-05-13 05:26:00,
2013-05-13 01:31:00,52.3,41.7,29.94,WNW,291,6.0,10.0,67,0.00,,,0.00,meteohub,2013-05-13 05:31:00,
2013-05-13 01:36:00,52.3,42.4,29.94,West,276,6.0,10.0,69,0.00,,,0.00,meteohub,2013-05-13 05:36:00,
2013-05-13 01:41:00,52.3,42.1,29.95,WNW,293,6.0,10.0,68,0.00,,,0.00,meteohub,2013-05-13 05:41:00,
2013-05-13 01:46:00,52.2,42.6,29.94,WNW,282,6.0,9.0,70,0.00,,,0.00,meteohub,2013-05-13 05:46:00,
2013-05-13 01:51:00,52.2,42.6,29.94,WNW,284,6.0,9.0,70,0.00,,,0.00,meteohub,2013-05-13 05:51:00,
2013-05-13 01:56:00,52.2,42.6,29.95,NW,312,5.0,9.0,70,0.00,,,0.00,meteohub,2013-05-13 05:56:00,
2013-05-13 02:01:00,52.2,41.2,29.95,WSW,255,4.0,9.0,66,0.00,,,0.00,meteohub,2013-05-13 06:01:00,
2013-05-13 02:06:00,52.0,42.1,29.95,West,281,9.0,9.0,69,0.00,,,0.00,meteohub,2013-05-13 06:06:00,
2013-05-13 02:11:00,52.0,40.1,29.95,West,260,8.0,9.0,64,0.00,,,0.00,meteohub,2013-05-13 06:11:00,
2013-05-13 02:16:00,52.0,39.4,29.95,West,277,6.0,10.0,62,0.00,,,0.00,meteohub,2013-05-13 06:16:00,
2013-05-13 02:21:00,52.0,41.4,29.95,West,275,8.0,10.0,67,0.00,,,0.00,meteohub,2013-05-13 06:21:00,
2013-05-13 02:26:00,51.8,40.1,29.96,WNW,297,6.0,10.0,64,0.00,,,0.00,meteohub,2013-05-13 06:26:00,
2013-05-13 02:31:00,51.6,38.1,29.95,West,267,8.0,11.0,60,0.00,,,0.00,meteohub,2013-05-13 06:31:00,
2013-05-13 02:36:00,51.6,38.7,29.95,West,280,7.0,11.0,61,0.00,,,0.00,meteohub,2013-05-13 06:36:00,
2013-05-13 02:41:00,51.4,37.6,29.95,WNW,295,7.0,12.0,59,0.00,,,0.00,meteohub,2013-05-13 06:41:00,
2013-05-13 02:46:00,51.4,38.5,29.95,WNW,284,7.0,13.0,61,0.00,,,0.00,meteohub,2013-05-13 06:46:00,
2013-05-13 02:51:00,51.3,37.4,29.96,WNW,300,8.0,16.0,59,0.00,,,0.00,meteohub,2013-05-13 06:51:00,
2013-05-13 02:56:00,51.3,38.7,29.95,WNW,287,6.0,16.0,62,0.00,,,0.00,meteohub,2013-05-13 06:56:00,
2013-05-13 03:01:00,51.1,39.4,29.96,WNW,283,5.0,16.0,64,0.00,,,0.00,meteohub,2013-05-13 07:01:00,
2013-05-13 03:06:00,51.1,39.4,29.96,WNW,287,6.0,11.0,64,0.00,,,0.00,meteohub,2013-05-13 07:06:00,
2013-05-13 03:11:00,50.9,39.9,29.96,NW,312,4.0,9.0,66,0.00,,,0.00,meteohub,2013-05-13 07:11:00,
2013-05-13 03:16:00,50.7,40.5,29.96,West,280,5.0,9.0,68,0.00,,,0.00,meteohub,2013-05-13 07:16:00,
2013-05-13 03:21:00,50.7,39.4,29.96,West,278,6.0,8.0,65,0.00,,,0.00,meteohub,2013-05-13 07:21:00,
2013-05-13 03:26:00,50.7,38.7,29.96,WNW,295,6.0,8.0,63,0.00,,,0.00,meteohub,2013-05-13 07:26:00,
2013-05-13 03:31:00,50.7,39.0,29.96,WNW,290,4.0,9.0,64,0.00,,,0.00,meteohub,2013-05-13 07:31:00,
2013-05-13 03:36:00,50.5,37.2,29.96,WNW,288,7.0,9.0,60,0.00,,,0.00,meteohub,2013-05-13 07:36:00,
2013-05-13 03:42:00,50.5,38.5,29.96,WNW,295,6.0,9.0,63,0.00,,,0.00,meteohub,2013-05-13 07:42:00,
2013-05-13 03:46:00,50.5,39.2,29.96,West,276,4.0,10.0,65,0.00,,,0.00,meteohub,2013-05-13 07:46:00,
2013-05-13 03:51:00,50.5,40.5,29.96,WNW,283,5.0,10.0,68,0.00,,,0.00,meteohub,2013-05-13 07:51:00,
2013-05-13 03:56:00,50.4,39.4,29.96,WNW,297,5.0,10.0,66,0.00,,,0.00,meteohub,2013-05-13 07:56:00,
2013-05-13 04:01:00,50.4,38.7,29.97,WNW,295,6.0,8.0,64,0.00,,,0.00,meteohub,2013-05-13 08:01:00,
2013-05-13 04:07:00,50.4,38.3,29.97,West,277,6.0,8.0,63,0.00,,,0.00,meteohub,2013-05-13 08:07:00,
2013-05-13 04:12:00,50.4,39.0,29.97,WNW,293,6.0,8.0,65,0.00,,,0.00,meteohub,2013-05-13 08:12:00,
2013-05-13 04:17:00,50.2,38.1,29.97,West,280,5.0,8.0,63,0.00,,,0.00,meteohub,2013-05-13 08:17:00,
2013-05-13 04:21:00,50.2,38.1,29.98,NW,314,6.0,8.0,63,0.00,,,0.00,meteohub,2013-05-13 08:21:00,
2013-05-13 04:26:00,50.0,37.0,29.98,WNW,285,6.0,9.0,61,0.00,,,0.00,meteohub,2013-05-13 08:26:00,
2013-05-13 04:31:00,49.8,38.5,29.98,West,280,6.0,9.0,65,0.00,,,0.00,meteohub,2013-05-13 08:31:00,
2013-05-13 04:36:00,49.8,36.9,29.98,West,280,6.0,9.0,61,0.00,,,0.00,meteohub,2013-05-13 08:36:00,
2013-05-13 04:41:00,49.8,37.4,29.98,WNW,287,5.0,9.0,62,0.00,,,0.00,meteohub,2013-05-13 08:41:00,
2013-05-13 04:46:00,49.6,37.9,29.99,WNW,284,6.0,9.0,64,0.00,,,0.00,meteohub,2013-05-13 08:46:00,
2013-05-13 04:51:00,49.5,37.8,29.99,WNW,285,6.0,9.0,64,0.00,,,0.00,meteohub,2013-05-13 08:51:00,
2013-05-13 04:56:00,49.3,37.6,29.99,WNW,288,7.0,8.0,64,0.00,,,0.00,meteohub,2013-05-13 08:56:00,
2013-05-13 05:01:00,49.3,37.9,29.99,WNW,301,6.0,9.0,65,0.00,,,0.00,meteohub,2013-05-13 09:01:00,
2013-05-13 05:07:00,48.9,36.9,29.99,West,278,7.0,9.0,63,0.00,,,0.00,meteohub,2013-05-13 09:07:00,
2013-05-13 05:12:00,48.9,38.1,29.99,WNW,294,5.0,10.0,66,0.00,,,0.00,meteohub,2013-05-13 09:12:00,
2013-05-13 05:17:00,48.7,38.3,30.00,NW,308,5.0,10.0,67,0.00,,,0.00,meteohub,2013-05-13 09:17:00,
2013-05-13 05:22:00,48.7,37.6,30.00,WNW,297,6.0,10.0,65,0.00,,,0.00,meteohub,2013-05-13 09:22:00,
2013-05-13 05:27:00,48.6,37.8,30.00,WNW,288,5.0,9.0,66,0.00,,,0.00,meteohub,2013-05-13 09:27:00,
2013-05-13 05:32:00,48.6,38.1,30.01,West,273,4.0,9.0,67,0.00,,,0.00,meteohub,2013-05-13 09:32:00,
2013-05-13 05:37:00,48.6,37.8,30.01,West,281,6.0,9.0,66,0.00,,,0.00,meteohub,2013-05-13 09:37:00,
2013-05-13 05:42:00,48.6,37.8,30.01,WNW,291,4.0,9.0,66,0.00,,,0.00,meteohub,2013-05-13 09:42:00,
2013-05-13 05:47:00,48.6,38.1,30.01,NW,304,5.0,8.0,67,0.00,,,0.00,meteohub,2013-05-13 09:47:00,
2013-05-13 05:52:00,48.6,38.5,30.01,NW,318,6.0,8.0,68,0.00,,,0.00,meteohub,2013-05-13 09:52:00,
2013-05-13 05:57:00,48.6,37.8,30.01,West,273,5.0,8.0,66,0.00,,,0.00,meteohub,2013-05-13 09:57:00,
2013-05-13 06:02:00,48.7,38.3,30.02,WNW,292,5.0,8.0,67,0.00,,,0.00,meteohub,2013-05-13 10:02:00,
2013-05-13 06:07:00,48.9,37.8,30.02,WNW,288,4.0,8.0,65,0.00,,,0.00,meteohub,2013-05-13 10:07:00,
2013-05-13 06:11:00,49.1,38.7,30.02,WNW,288,6.0,8.0,67,0.00,,,0.00,meteohub,2013-05-13 10:11:00,
2013-05-13 06:16:00,49.3,38.5,30.02,WNW,298,4.0,8.0,66,0.00,,,0.00,meteohub,2013-05-13 10:16:00,
2013-05-13 06:21:00,49.5,39.0,30.02,WNW,294,6.0,8.0,67,0.00,,,0.00,meteohub,2013-05-13 10:21:00,
2013-05-13 06:27:00,49.5,39.7,30.02,WNW,298,4.0,6.0,69,0.00,,,0.00,meteohub,2013-05-13 10:27:00,
2013-05-13 06:32:00,49.3,37.9,30.02,WNW,295,5.0,7.0,65,0.00,,,0.00,meteohub,2013-05-13 10:32:00,
2013-05-13 06:36:00,49.5,39.4,30.02,WNW,289,5.0,7.0,68,0.00,,,0.00,meteohub,2013-05-13 10:36:00,
2013-05-13 06:41:00,49.5,38.7,30.02,West,278,6.0,7.0,66,0.00,,,0.00,meteohub,2013-05-13 10:41:00,
2013-05-13 06:46:00,49.6,38.7,30.02,WSW,249,4.0,7.0,66,0.00,,,0.00,meteohub,2013-05-13 10:46:00,
2013-05-13 06:51:00,49.6,37.9,30.03,West,278,5.0,7.0,64,0.00,,,0.00,meteohub,2013-05-13 10:51:00,
2013-05-13 06:57:00,49.6,38.3,30.03,WNW,285,5.0,7.0,65,0.00,,,0.00,meteohub,2013-05-13 10:57:00,
2013-05-13 07:02:00,49.6,37.6,30.03,West,273,4.0,7.0,63,0.00,,,0.00,meteohub,2013-05-13 11:02:00,
2013-05-13 07:07:00,49.6,38.7,30.03,NW,306,3.0,7.0,66,0.00,,,0.00,meteohub,2013-05-13 11:07:00,
2013-05-13 07:12:00,49.8,37.4,30.04,West,260,4.0,7.0,62,0.00,,,0.00,meteohub,2013-05-13 11:12:00,
2013-05-13 07:17:00,49.8,38.1,30.04,West,274,3.0,6.0,64,0.00,,,0.00,meteohub,2013-05-13 11:17:00,
2013-05-13 07:22:00,50.0,37.0,30.04,West,277,4.0,6.0,61,0.00,,,0.00,meteohub,2013-05-13 11:22:00,
2013-05-13 07:27:00,50.2,38.5,30.04,WNW,287,3.0,5.0,64,0.00,,,0.00,meteohub,2013-05-13 11:27:00,
2013-05-13 07:32:00,50.2,36.9,30.04,WNW,285,5.0,6.0,60,0.00,,,0.00,meteohub,2013-05-13 11:32:00,
2013-05-13 07:37:00,50.0,37.0,30.04,WNW,289,3.0,7.0,61,0.00,,,0.00,meteohub,2013-05-13 11:37:00,
2013-05-13 07:42:00,50.2,37.2,30.04,West,281,5.0,7.0,61,0.00,,,0.00,meteohub,2013-05-13 11:42:00,
2013-05-13 07:47:00,50.4,38.3,30.04,WNW,294,3.0,7.0,63,0.00,,,0.00,meteohub,2013-05-13 11:47:00,
2013-05-13 07:52:00,50.4,38.7,30.04,WNW,288,3.0,6.0,64,0.00,,,0.00,meteohub,2013-05-13 11:52:00,
2013-05-13 07:57:00,50.4,37.8,30.05,WSW,257,2.0,6.0,62,0.00,,,0.00,meteohub,2013-05-13 11:57:00,
2013-05-13 08:02:00,50.5,38.5,30.05,West,264,4.0,7.0,63,0.00,,,0.00,meteohub,2013-05-13 12:02:00,
2013-05-13 08:07:00,50.5,38.5,30.05,West,269,5.0,7.0,63,0.00,,,0.00,meteohub,2013-05-13 12:07:00,
2013-05-13 08:12:00,50.5,38.8,30.05,West,281,3.0,7.0,64,0.00,,,0.00,meteohub,2013-05-13 12:12:00,
2013-05-13 08:17:00,50.5,39.2,30.05,WNW,285,3.0,7.0,65,0.00,,,0.00,meteohub,2013-05-13 12:17:00,
2013-05-13 08:22:00,50.7,39.7,30.05,West,275,3.0,7.0,66,0.00,,,0.00,meteohub,2013-05-13 12:22:00,
2013-05-13 08:27:00,50.5,38.5,30.05,West,276,6.0,6.0,63,0.00,,,0.00,meteohub,2013-05-13 12:27:00,
2013-05-13 08:32:00,50.5,39.2,30.05,West,276,5.0,7.0,65,0.00,,,0.00,meteohub,2013-05-13 12:32:00,
2013-05-13 08:37:00,50.5,37.9,30.06,WNW,294,4.0,7.0,62,0.00,,,0.00,meteohub,2013-05-13 12:37:00,
2013-05-13 08:42:00,50.5,36.7,30.06,West,266,4.0,7.0,59,0.00,,,0.00,meteohub,2013-05-13 12:42:00,
2013-05-13 08:46:00,50.5,37.9,30.05,WNW,287,4.0,7.0,62,0.00,,,0.00,meteohub,2013-05-13 12:46:00,
2013-05-13 08:51:00,50.7,38.7,30.05,WNW,288,5.0,7.0,63,0.00,,,0.00,meteohub,2013-05-13 12:51:00,
2013-05-13 08:56:00,50.7,38.1,30.05,West,263,5.0,7.0,62,0.00,,,0.00,meteohub,2013-05-13 12:56:00,
2013-05-13 09:01:00,50.7,37.8,30.05,NW,307,3.0,7.0,61,0.00,,,0.00,meteohub,2013-05-13 13:01:00,
2013-05-13 09:06:00,50.7,37.8,30.05,WNW,284,5.0,7.0,61,0.00,,,0.00,meteohub,2013-05-13 13:06:00,
2013-05-13 09:11:00,50.7,38.1,30.05,WNW,285,5.0,8.0,62,0.00,,,0.00,meteohub,2013-05-13 13:11:00,
2013-05-13 09:16:00,50.7,38.1,30.05,West,280,5.0,8.0,62,0.00,,,0.00,meteohub,2013-05-13 13:16:00,
2013-05-13 09:21:00,50.9,38.3,30.05,WNW,283,4.0,8.0,62,0.00,,,0.00,meteohub,2013-05-13 13:21:00,
2013-05-13 09:26:00,50.7,38.1,30.05,NW,305,5.0,8.0,62,0.00,,,0.00,meteohub,2013-05-13 13:26:00,
2013-05-13 09:31:00,50.7,37.8,30.05,WNW,293,5.0,8.0,61,0.00,,,0.00,meteohub,2013-05-13 13:31:00,
2013-05-13 09:37:00,51.1,38.5,30.05,WNW,296,6.0,8.0,62,0.00,,,0.00,meteohub,2013-05-13 13:37:00,
2013-05-13 09:42:00,51.1,38.5,30.05,WNW,294,4.0,7.0,62,0.00,,,0.00,meteohub,2013-05-13 13:42:00,
2013-05-13 09:47:00,51.3,40.3,30.05,WNW,300,4.0,6.0,66,0.00,,,0.00,meteohub,2013-05-13 13:47:00,
2013-05-13 09:52:00,51.3,38.7,30.05,WNW,288,5.0,6.0,62,0.00,,,0.00,meteohub,2013-05-13 13:52:00,
2013-05-13 09:57:00,51.3,39.9,30.05,West,264,4.0,7.0,65,0.00,,,0.00,meteohub,2013-05-13 13:57:00,
2013-05-13 10:02:00,51.4,39.7,30.05,West,278,4.0,8.0,64,0.00,,,0.00,meteohub,2013-05-13 14:02:00,
2013-05-13 10:07:00,51.4,40.1,30.05,WNW,294,3.0,8.0,65,0.00,,,0.00,meteohub,2013-05-13 14:07:00,
2013-05-13 10:12:00,51.6,40.3,30.05,WNW,287,4.0,8.0,65,0.00,,,0.00,meteohub,2013-05-13 14:12:00,
2013-05-13 10:17:00,51.6,39.9,30.05,WNW,293,4.0,8.0,64,0.00,,,0.00,meteohub,2013-05-13 14:17:00,
2013-05-13 10:22:00,51.6,39.9,30.04,WNW,283,5.0,8.0,64,0.00,,,0.00,meteohub,2013-05-13 14:22:00,
2013-05-13 10:27:00,51.6,39.4,30.04,WNW,288,6.0,8.0,63,0.00,,,0.00,meteohub,2013-05-13 14:27:00,
2013-05-13 10:32:00,51.6,39.9,30.04,WNW,303,5.0,8.0,64,0.00,,,0.00,meteohub,2013-05-13 14:32:00,
2013-05-13 10:37:00,51.8,39.6,30.04,WNW,288,5.0,8.0,63,0.00,,,0.00,meteohub,2013-05-13 14:37:00,
2013-05-13 10:42:00,51.6,38.7,30.05,WNW,296,5.0,8.0,61,0.00,,,0.00,meteohub,2013-05-13 14:42:00,
2013-05-13 10:47:00,51.8,38.8,30.04,WNW,295,6.0,9.0,61,0.00,,,0.00,meteohub,2013-05-13 14:47:00,
2013-05-13 10:52:00,51.8,38.8,30.04,WNW,283,9.0,9.0,61,0.00,,,0.00,meteohub,2013-05-13 14:52:00,
2013-05-13 10:57:00,52.0,38.5,30.05,WNW,291,5.0,9.0,60,0.00,,,0.00,meteohub,2013-05-13 14:57:00,
2013-05-13 11:02:00,52.0,39.7,30.04,West,273,4.0,9.0,63,0.00,,,0.00,meteohub,2013-05-13 15:02:00,
2013-05-13 11:07:00,52.2,41.2,30.04,WNW,299,6.0,9.0,66,0.00,,,0.00,meteohub,2013-05-13 15:07:00,
2013-05-13 11:12:00,52.2,40.3,30.05,WNW,293,6.0,9.0,64,0.00,,,0.00,meteohub,2013-05-13 15:12:00,
2013-05-13 11:17:00,52.2,39.6,30.05,West,269,5.0,10.0,62,0.00,,,0.00,meteohub,2013-05-13 15:17:00,
2013-05-13 11:22:00,52.0,38.5,30.05,West,281,7.0,10.0,60,0.00,,,0.00,meteohub,2013-05-13 15:22:00,
2013-05-13 11:26:00,52.2,39.9,30.05,WNW,291,5.0,12.0,63,0.00,,,0.00,meteohub,2013-05-13 15:26:00,
2013-05-13 11:31:00,52.2,39.6,30.05,NW,307,4.0,12.0,62,0.00,,,0.00,meteohub,2013-05-13 15:31:00,
2013-05-13 11:36:00,52.0,39.0,30.05,West,280,4.0,10.0,61,0.00,,,0.00,meteohub,2013-05-13 15:36:00,
2013-05-13 11:41:00,52.2,39.9,30.05,NW,321,5.0,10.0,63,0.00,,,0.00,meteohub,2013-05-13 15:41:00,
2013-05-13 11:46:00,52.3,38.8,30.05,WNW,295,8.0,9.0,60,0.00,,,0.00,meteohub,2013-05-13 15:46:00,
2013-05-13 11:51:00,52.5,39.4,30.05,WNW,296,6.0,10.0,61,0.00,,,0.00,meteohub,2013-05-13 15:51:00,
2013-05-13 11:57:00,52.3,38.5,30.05,WNW,290,6.0,10.0,59,0.00,,,0.00,meteohub,2013-05-13 15:57:00,
2013-05-13 12:02:00,52.5,38.7,30.05,WNW,289,4.0,10.0,59,0.00,,,0.00,meteohub,2013-05-13 16:02:00,
2013-05-13 12:07:00,52.7,38.3,30.05,WNW,293,4.0,9.0,58,0.00,,,0.00,meteohub,2013-05-13 16:07:00,
2013-05-13 12:12:00,52.9,38.5,30.05,WNW,283,5.0,8.0,58,0.00,,,0.00,meteohub,2013-05-13 16:12:00,
2013-05-13 12:17:00,53.1,40.5,30.05,WNW,295,5.0,8.0,62,0.00,,,0.00,meteohub,2013-05-13 16:17:00,
2013-05-13 12:22:00,53.2,37.9,30.05,WNW,285,4.0,10.0,56,0.00,,,0.00,meteohub,2013-05-13 16:22:00,
2013-05-13 12:27:00,53.2,38.8,30.05,NW,312,9.0,10.0,58,0.00,,,0.00,meteohub,2013-05-13 16:27:00,
2013-05-13 12:32:00,52.3,37.9,30.05,WNW,293,4.0,10.0,58,0.00,,,0.00,meteohub,2013-05-13 16:32:00,
2013-05-13 12:37:00,52.0,39.7,30.05,WNW,295,5.0,9.0,63,0.00,,,0.00,meteohub,2013-05-13 16:37:00,
2013-05-13 12:42:00,52.0,39.0,30.05,WNW,293,5.0,9.0,61,0.00,,,0.00,meteohub,2013-05-13 16:42:00,
2013-05-13 12:47:00,52.3,38.5,30.05,WNW,297,7.0,9.0,59,0.00,,,0.00,meteohub,2013-05-13 16:47:00,
2013-05-13 12:52:00,53.1,38.3,30.05,WNW,289,7.0,9.0,57,0.00,,,0.00,meteohub,2013-05-13 16:52:00,
2013-05-13 12:57:00,52.9,38.5,30.05,WNW,295,5.0,9.0,58,0.00,,,0.00,meteohub,2013-05-13 16:57:00,
2013-05-13 13:02:00,53.4,40.6,30.05,WNW,298,4.0,9.0,62,0.00,,,0.00,meteohub,2013-05-13 17:02:00,
2013-05-13 13:07:00,53.8,38.8,30.05,NW,305,5.0,9.0,57,0.00,,,0.00,meteohub,2013-05-13 17:07:00,
2013-05-13 13:12:00,53.8,39.7,30.05,WNW,294,5.0,9.0,59,0.00,,,0.00,meteohub,2013-05-13 17:12:00,
2013-05-13 13:17:00,53.1,38.7,30.05,WNW,290,5.0,8.0,58,0.00,,,0.00,meteohub,2013-05-13 17:17:00,
2013-05-13 13:22:00,52.5,38.7,30.05,WNW,293,4.0,7.0,59,0.00,,,0.00,meteohub,2013-05-13 17:22:00,
2013-05-13 13:27:00,52.5,38.1,30.04,WNW,289,4.0,7.0,58,0.00,,,0.00,meteohub,2013-05-13 17:27:00,
2013-05-13 13:32:00,53.2,40.1,30.04,WNW,285,5.0,7.0,61,0.00,,,0.00,meteohub,2013-05-13 17:32:00,
2013-05-13 13:37:00,53.4,39.0,30.04,WNW,296,4.0,7.0,58,0.00,,,0.00,meteohub,2013-05-13 17:37:00,
2013-05-13 13:42:00,53.2,38.8,30.04,NW,308,6.0,8.0,58,0.00,,,0.00,meteohub,2013-05-13 17:42:00,
2013-05-13 13:47:00,53.1,38.7,30.04,WNW,294,3.0,8.0,58,0.00,,,0.00,meteohub,2013-05-13 17:47:00,
2013-05-13 13:52:00,53.1,37.8,30.04,WNW,296,4.0,8.0,56,0.00,,,0.00,meteohub,2013-05-13 17:52:00,
2013-05-13 13:57:00,53.4,39.9,30.04,West,278,5.0,8.0,60,0.00,,,0.00,meteohub,2013-05-13 17:57:00,
2013-05-13 14:02:00,54.0,39.6,30.04,WNW,285,4.0,7.0,58,0.00,,,0.00,meteohub,2013-05-13 18:02:00,
2013-05-13 14:07:00,54.1,38.8,30.04,WNW,295,5.0,7.0,56,0.00,,,0.00,meteohub,2013-05-13 18:07:00,
2013-05-13 14:12:00,54.3,39.9,30.04,WNW,291,4.0,8.0,58,0.00,,,0.00,meteohub,2013-05-13 18:12:00,
2013-05-13 14:17:00,54.5,40.1,30.04,WNW,288,4.0,8.0,58,0.00,,,0.00,meteohub,2013-05-13 18:17:00,
2013-05-13 14:22:00,54.7,38.3,30.04,West,278,5.0,6.0,54,0.00,,,0.00,meteohub,2013-05-13 18:22:00,
2013-05-13 14:27:00,54.7,40.3,30.04,WNW,289,5.0,6.0,58,0.00,,,0.00,meteohub,2013-05-13 18:27:00,
2013-05-13 14:32:00,54.5,39.6,30.04,West,276,6.0,6.0,57,0.00,,,0.00,meteohub,2013-05-13 18:32:00,
2013-05-13 14:37:00,54.5,40.5,30.03,West,269,5.0,7.0,59,0.00,,,0.00,meteohub,2013-05-13 18:37:00,
2013-05-13 14:42:00,54.3,37.9,30.03,WNW,287,5.0,8.0,54,0.00,,,0.00,meteohub,2013-05-13 18:42:00,
2013-05-13 14:47:00,54.1,37.9,30.03,WNW,289,4.0,8.0,54,0.00,,,0.00,meteohub,2013-05-13 18:47:00,
2013-05-13 14:52:00,54.3,39.4,30.03,WNW,290,4.0,7.0,57,0.00,,,0.00,meteohub,2013-05-13 18:52:00,
2013-05-13 14:57:00,54.5,39.2,30.03,WNW,288,4.0,7.0,56,0.00,,,0.00,meteohub,2013-05-13 18:57:00,
2013-05-13 15:01:00,54.9,39.4,30.03,WNW,285,5.0,7.0,56,0.00,,,0.00,meteohub,2013-05-13 19:01:00,
2013-05-13 15:07:00,54.9,39.4,30.03,West,269,4.0,6.0,56,0.00,,,0.00,meteohub,2013-05-13 19:07:00,
2013-05-13 15:12:00,54.9,39.0,30.03,WNW,291,5.0,8.0,55,0.00,,,0.00,meteohub,2013-05-13 19:12:00,
2013-05-13 15:17:00,55.2,39.7,30.03,WNW,300,4.0,8.0,56,0.00,,,0.00,meteohub,2013-05-13 19:17:00,
2013-05-13 15:22:00,55.4,38.1,30.02,West,271,5.0,8.0,52,0.00,,,0.00,meteohub,2013-05-13 19:22:00,
2013-05-13 15:27:00,55.6,41.0,30.02,WNW,287,5.0,7.0,58,0.00,,,0.00,meteohub,2013-05-13 19:27:00,
2013-05-13 15:32:00,55.6,39.7,30.02,West,271,5.0,7.0,55,0.00,,,0.00,meteohub,2013-05-13 19:32:00,
2013-05-13 15:37:00,55.6,39.2,30.02,WNW,293,5.0,7.0,54,0.00,,,0.00,meteohub,2013-05-13 19:37:00,
2013-05-13 15:42:00,55.8,40.3,30.02,WNW,302,4.0,7.0,56,0.00,,,0.00,meteohub,2013-05-13 19:42:00,
2013-05-13 15:47:00,55.8,40.8,30.02,WNW,284,5.0,6.0,57,0.00,,,0.00,meteohub,2013-05-13 19:47:00,
2013-05-13 15:52:00,55.6,39.7,30.02,WNW,290,5.0,8.0,55,0.00,,,0.00,meteohub,2013-05-13 19:52:00,
2013-05-13 15:57:00,55.2,38.3,30.02,West,278,5.0,8.0,53,0.00,,,0.00,meteohub,2013-05-13 19:57:00,
2013-05-13 16:01:00,55.0,38.7,30.02,WNW,283,5.0,8.0,54,0.00,,,0.00,meteohub,2013-05-13 20:01:00,
2013-05-13 16:06:00,55.2,38.8,30.02,West,278,5.0,7.0,54,0.00,,,0.00,meteohub,2013-05-13 20:06:00,
2013-05-13 16:11:00,55.6,38.7,30.02,WNW,283,4.0,7.0,53,0.00,,,0.00,meteohub,2013-05-13 20:11:00,
2013-05-13 16:16:00,55.6,39.2,30.02,WNW,295,5.0,7.0,54,0.00,,,0.00,meteohub,2013-05-13 20:16:00,
2013-05-13 16:21:00,55.8,39.9,30.02,WNW,295,3.0,6.0,55,0.00,,,0.00,meteohub,2013-05-13 20:21:00,
2013-05-13 16:26:00,55.6,40.1,30.02,West,281,5.0,6.0,56,0.00,,,0.00,meteohub,2013-05-13 20:26:00,
2013-05-13 16:31:00,55.6,39.2,30.02,WNW,293,5.0,7.0,54,0.00,,,0.00,meteohub,2013-05-13 20:31:00,
2013-05-13 16:36:00,55.4,39.0,30.01,WNW,287,5.0,7.0,54,0.00,,,0.00,meteohub,2013-05-13 20:36:00,
2013-05-13 16:41:00,55.2,37.9,30.01,WNW,293,5.0,7.0,52,0.00,,,0.00,meteohub,2013-05-13 20:41:00,
2013-05-13 16:46:00,55.4,39.6,30.01,WNW,287,5.0,7.0,55,0.00,,,0.00,meteohub,2013-05-13 20:46:00,
2013-05-13 16:51:00,55.2,38.8,30.01,West,281,5.0,7.0,54,0.00,,,0.00,meteohub,2013-05-13 20:51:00,
2013-05-13 16:56:00,55.6,40.1,30.01,WNW,283,5.0,7.0,56,0.00,,,0.00,meteohub,2013-05-13 20:56:00,
2013-05-13 17:01:00,55.6,38.7,30.01,West,273,6.0,7.0,53,0.00,,,0.00,meteohub,2013-05-13 21:01:00,
2013-05-13 17:06:00,55.0,38.3,30.01,West,273,5.0,7.0,53,0.00,,,0.00,meteohub,2013-05-13 21:06:00,
2013-05-13 17:11:00,55.2,38.8,30.01,West,271,4.0,7.0,54,0.00,,,0.00,meteohub,2013-05-13 21:11:00,
2013-05-13 17:16:00,55.4,39.6,30.01,WNW,284,4.0,7.0,55,0.00,,,0.00,meteohub,2013-05-13 21:16:00,
2013-05-13 17:21:00,54.9,37.6,30.01,WNW,283,5.0,6.0,52,0.00,,,0.00,meteohub,2013-05-13 21:21:00,
2013-05-13 17:26:00,54.5,37.8,30.01,West,281,5.0,6.0,53,0.00,,,0.00,meteohub,2013-05-13 21:26:00,
2013-05-13 17:31:00,54.9,38.5,30.01,WNW,300,4.0,6.0,54,0.00,,,0.00,meteohub,2013-05-13 21:31:00,
2013-05-13 17:36:00,55.2,38.8,30.01,WNW,287,4.0,7.0,54,0.00,,,0.00,meteohub,2013-05-13 21:36:00,
2013-05-13 17:41:00,54.9,38.5,30.01,WNW,288,4.0,7.0,54,0.00,,,0.00,meteohub,2013-05-13 21:41:00,
2013-05-13 17:46:00,54.3,37.9,30.01,WNW,295,4.0,7.0,54,0.00,,,0.00,meteohub,2013-05-13 21:46:00,
2013-05-13 17:51:00,54.1,40.6,30.01,WNW,295,4.0,7.0,60,0.00,,,0.00,meteohub,2013-05-13 21:51:00,
2013-05-13 17:56:00,54.0,39.9,30.01,NW,326,6.0,7.0,59,0.00,,,0.00,meteohub,2013-05-13 21:56:00,
2013-05-13 18:01:00,54.1,38.8,30.01,NW,312,6.0,8.0,56,0.00,,,0.00,meteohub,2013-05-13 22:01:00,
2013-05-13 18:06:00,54.7,39.4,30.01,WNW,288,6.0,8.0,56,0.00,,,0.00,meteohub,2013-05-13 22:06:00,
2013-05-13 18:11:00,54.9,39.9,30.01,NW,307,5.0,9.0,57,0.00,,,0.00,meteohub,2013-05-13 22:11:00,
2013-05-13 18:17:00,54.7,38.3,30.01,NW,312,8.0,9.0,54,0.00,,,0.00,meteohub,2013-05-13 22:17:00,
2013-05-13 18:22:00,54.1,38.8,30.01,NW,317,5.0,10.0,56,0.00,,,0.00,meteohub,2013-05-13 22:22:00,
2013-05-13 18:27:00,53.6,38.7,30.01,WNW,292,6.0,10.0,57,0.00,,,0.00,meteohub,2013-05-13 22:27:00,
2013-05-13 18:32:00,53.2,37.9,30.01,WNW,300,4.0,10.0,56,0.00,,,0.00,meteohub,2013-05-13 22:32:00,
2013-05-13 18:37:00,54.0,38.1,30.02,WNW,288,7.0,9.0,55,0.00,,,0.00,meteohub,2013-05-13 22:37:00,
2013-05-13 18:42:00,54.5,39.2,30.02,WSW,238,6.0,9.0,56,0.00,,,0.00,meteohub,2013-05-13 22:42:00,
2013-05-13 18:47:00,54.1,38.8,30.02,NW,315,4.0,8.0,56,0.00,,,0.00,meteohub,2013-05-13 22:47:00,
2013-05-13 18:52:00,54.0,37.2,30.02,WNW,287,4.0,8.0,53,0.00,,,0.00,meteohub,2013-05-13 22:52:00,
2013-05-13 18:57:00,54.0,39.0,30.02,WNW,293,3.0,8.0,57,0.00,,,0.00,meteohub,2013-05-13 22:57:00,
2013-05-13 19:02:00,53.6,36.3,30.02,WNW,297,6.0,8.0,52,0.00,,,0.00,meteohub,2013-05-13 23:02:00,
2013-05-13 19:07:00,54.0,37.8,30.03,WNW,297,3.0,7.0,54,0.00,,,0.00,meteohub,2013-05-13 23:07:00,
2013-05-13 19:12:00,54.1,38.3,30.03,WNW,289,2.0,7.0,55,0.00,,,0.00,meteohub,2013-05-13 23:12:00,
2013-05-13 19:17:00,54.0,35.2,30.03,West,276,4.0,6.0,49,0.00,,,0.00,meteohub,2013-05-13 23:17:00,
2013-05-13 19:22:00,53.1,35.4,30.03,West,278,2.0,5.0,51,0.00,,,0.00,meteohub,2013-05-13 23:22:00,
2013-05-13 19:27:00,52.3,37.0,30.03,WNW,291,2.0,4.0,56,0.00,,,0.00,meteohub,2013-05-13 23:27:00,
2013-05-13 19:32:00,52.0,37.6,30.03,WNW,295,2.0,4.0,58,0.00,,,0.00,meteohub,2013-05-13 23:32:00,
2013-05-13 19:37:00,52.0,36.9,30.04,WNW,285,3.0,4.0,56,0.00,,,0.00,meteohub,2013-05-13 23:37:00,
2013-05-13 19:42:00,51.6,36.9,30.04,WNW,293,2.0,3.0,57,0.00,,,0.00,meteohub,2013-05-13 23:42:00,
2013-05-13 19:47:00,51.6,37.4,30.04,WNW,301,2.0,3.0,58,0.00,,,0.00,meteohub,2013-05-13 23:47:00,
2013-05-13 19:52:00,51.4,37.2,30.04,West,263,1.0,4.0,58,0.00,,,0.00,meteohub,2013-05-13 23:52:00,
2013-05-13 19:57:00,51.4,37.6,30.04,West,276,3.0,4.0,59,0.00,,,0.00,meteohub,2013-05-13 23:57:00,
2013-05-13 20:02:00,51.4,37.6,30.04,WNW,288,2.0,4.0,59,0.00,,,0.00,meteohub,2013-05-14 00:02:00,
2013-05-13 20:07:00,51.6,39.0,30.04,WNW,294,2.0,4.0,62,0.00,,,0.00,meteohub,2013-05-14 00:07:00,
2013-05-13 20:12:00,51.6,38.7,30.04,WNW,287,3.0,5.0,61,0.00,,,0.00,meteohub,2013-05-14 00:12:00,
2013-05-13 20:17:00,51.8,38.3,30.04,NNE,18,5.0,6.0,60,0.00,,,0.00,meteohub,2013-05-14 00:17:00,
2013-05-13 20:22:00,52.0,37.6,30.05,NW,325,8.0,9.0,58,0.00,,,0.00,meteohub,2013-05-14 00:22:00,
2013-05-13 20:27:00,52.0,37.2,30.05,NW,325,14.0,17.0,57,0.00,,,0.00,meteohub,2013-05-14 00:27:00,
2013-05-13 20:32:00,52.0,38.1,30.05,NW,322,5.0,21.0,59,0.00,,,0.00,meteohub,2013-05-14 00:32:00,
2013-05-13 20:37:00,51.8,38.8,30.05,NNW,335,5.0,21.0,61,0.00,,,0.00,meteohub,2013-05-14 00:37:00,
2013-05-13 20:42:00,51.8,37.6,30.06,NW,316,12.0,21.0,58,0.00,,,0.00,meteohub,2013-05-14 00:42:00,
2013-05-13 20:47:00,51.8,37.9,30.06,NW,321,4.0,19.0,59,0.00,,,0.00,meteohub,2013-05-14 00:47:00,
2013-05-13 20:52:00,51.6,36.9,30.06,North,358,7.0,20.0,57,0.00,,,0.00,meteohub,2013-05-14 00:52:00,
2013-05-13 20:57:00,51.6,39.9,30.07,NW,314,7.0,20.0,64,0.00,,,0.00,meteohub,2013-05-14 00:57:00,
2013-05-13 21:02:00,51.6,36.5,30.07,NNW,329,8.0,20.0,56,0.00,,,0.00,meteohub,2013-05-14 01:02:00,
2013-05-13 21:07:00,51.6,37.4,30.07,NW,319,15.0,18.0,58,0.00,,,0.00,meteohub,2013-05-14 01:07:00,
2013-05-13 21:12:00,51.4,37.2,30.07,NW,326,7.0,20.0,58,0.00,,,0.00,meteohub,2013-05-14 01:12:00,
2013-05-13 21:17:00,51.4,37.9,30.08,NNW,340,6.0,21.0,60,0.00,,,0.00,meteohub,2013-05-14 01:17:00,
2013-05-13 21:22:00,51.1,38.1,30.08,NNW,330,7.0,21.0,61,0.00,,,0.00,meteohub,2013-05-14 01:22:00,
2013-05-13 21:27:00,50.9,37.0,30.08,NW,316,3.0,21.0,59,0.00,,,0.00,meteohub,2013-05-14 01:27:00,
2013-05-13 21:32:00,50.7,37.8,30.08,NNW,328,9.0,14.0,61,0.00,,,0.00,meteohub,2013-05-14 01:32:00,
2013-05-13 21:37:00,50.5,37.9,30.09,NNW,337,15.0,18.0,62,0.00,,,0.00,meteohub,2013-05-14 01:37:00,
2013-05-13 21:42:00,50.4,38.7,30.09,North,351,15.0,21.0,64,0.00,,,0.00,meteohub,2013-05-14 01:42:00,
2013-05-13 21:47:00,50.4,38.3,30.09,NNW,344,14.0,21.0,63,0.00,,,0.00,meteohub,2013-05-14 01:47:00,
2013-05-13 21:52:00,50.4,38.3,30.09,NW,323,9.0,20.0,63,0.00,,,0.00,meteohub,2013-05-14 01:52:00,
2013-05-13 21:57:00,50.2,37.2,30.09,North,352,17.0,20.0,61,0.00,,,0.00,meteohub,2013-05-14 01:57:00,
2013-05-13 22:02:00,50.2,38.5,30.10,NW,314,12.0,20.0,64,0.00,,,0.00,meteohub,2013-05-14 02:02:00,
2013-05-13 22:07:00,50.2,37.6,30.10,NW,323,6.0,19.0,62,0.00,,,0.00,meteohub,2013-05-14 02:07:00,
2013-05-13 22:12:00,50.2,36.9,30.10,NNW,335,12.0,19.0,60,0.00,,,0.00,meteohub,2013-05-14 02:12:00,
2013-05-13 22:17:00,50.2,36.3,30.10,NNW,344,18.0,19.0,59,0.00,,,0.00,meteohub,2013-05-14 02:17:00,
2013-05-13 22:22:00,50.2,37.2,30.10,NW,304,15.0,19.0,61,0.00,,,0.00,meteohub,2013-05-14 02:22:00,
2013-05-13 22:27:00,50.2,37.2,30.10,North,353,14.0,19.0,61,0.00,,,0.00,meteohub,2013-05-14 02:27:00,
2013-05-13 22:32:00,50.0,37.6,30.10,NW,310,7.0,19.0,62,0.00,,,0.00,meteohub,2013-05-14 02:32:00,
2013-05-13 22:37:00,50.0,37.0,30.10,NNW,332,10.0,19.0,61,0.00,,,0.00,meteohub,2013-05-14 02:37:00,
2013-05-13 22:42:00,49.8,37.4,30.10,NNW,335,7.0,18.0,62,0.00,,,0.00,meteohub,2013-05-14 02:42:00,
2013-05-13 22:47:00,49.8,36.5,30.10,NW,307,14.0,17.0,60,0.00,,,0.00,meteohub,2013-05-14 02:47:00,
2013-05-13 22:52:00,49.8,37.8,30.09,NNW,332,11.0,21.0,63,0.00,,,0.00,meteohub,2013-05-14 02:52:00,
2013-05-13 22:57:00,49.8,37.4,30.10,NNW,332,15.0,21.0,62,0.00,,,0.00,meteohub,2013-05-14 02:57:00,
2013-05-13 23:02:00,49.6,36.0,30.10,NW,314,12.0,21.0,59,0.00,,,0.00,meteohub,2013-05-14 03:02:00,
2013-05-13 23:07:00,49.8,36.1,30.09,North,1,15.0,20.0,59,0.00,,,0.00,meteohub,2013-05-14 03:07:00,
2013-05-13 23:12:00,49.6,36.3,30.09,NNE,15,14.0,20.0,60,0.00,,,0.00,meteohub,2013-05-14 03:12:00,
2013-05-13 23:17:00,49.6,37.2,30.09,NNW,340,13.0,21.0,62,0.00,,,0.00,meteohub,2013-05-14 03:17:00,
2013-05-13 23:22:00,49.5,36.5,30.09,North,350,10.0,21.0,61,0.00,,,0.00,meteohub,2013-05-14 03:22:00,
2013-05-13 23:27:00,49.5,36.5,30.09,NNW,343,11.0,21.0,61,0.00,,,0.00,meteohub,2013-05-14 03:27:00,
2013-05-13 23:32:00,49.5,36.5,30.09,NNW,348,13.0,20.0,61,0.00,,,0.00,meteohub,2013-05-14 03:32:00,
2013-05-13 23:37:00,49.3,36.9,30.09,North,5,12.0,20.0,62,0.00,,,0.00,meteohub,2013-05-14 03:37:00,
2013-05-13 23:42:00,49.3,36.0,30.09,NNW,346,11.0,19.0,60,0.00,,,0.00,meteohub,2013-05-14 03:42:00,
2013-05-13 23:47:00,49.3,35.6,30.09,NNW,338,13.0,19.0,59,0.00,,,0.00,meteohub,2013-05-14 03:47:00,
2013-05-13 23:52:00,49.3,36.3,30.09,North,352,13.0,19.0,61,0.00,,,0.00,meteohub,2013-05-14 03:52:00,
2013-05-13 23:57:00,49.3,36.3,30.09,NW,311,9.0,18.0,61,0.00,,,0.00,meteohub,2013-05-14 03:57:00,